Theta_e
314 316 321 319 323 324 323 327 329 331 328 325 324 326 325 326 330 328 328 328 329 327 325 332 337 337 335 339 341 339 339 342 343 343 345 340 337 339 338 336 336 334 328 324 331 336 335 336 335 335 335 335 334 334 335 336 337 337 337 337 337 338 337 337 335 333 335 335 334 333 332 332 332 332 331 331 331 331 331 331 331 331 332 331 331 332 331 332 332 332 332 332 331 331 331 331 331
315 317 321 320 323 319 323 332 330 331 333 326 324 326 323 324 327 328 331 329 329 328 331 336 339 339 338 339 340 338 340 339 337 338 339 337 339 339 337 336 335 334 328 323 329 334 334 335 335 335 334 334 334 335 335 336 337 337 337 337 337 337 336 337 336 334 334 334 333 333 333 332 332 332 332 332 331 331 331 331 332 331 332 332 331 331 331 331 331 331 332 332 331 330 330 331 331
315 319 321 321 321 319 329 331 327 329 326 326 332 329 322 326 328 330 330 328 330 332 333 335 339 338 337 344 342 340 340 336 336 337 338 339 340 339 338 335 335 332 324 322 326 330 333 334 336 336 334 334 334 335 336 336 337 336 336 336 336 336 335 336 335 333 333 333 333 333 332 331 330 331 331 331 331 330 331 331 331 331 331 331 331 331 331 331 331 331 331 332 331 329 328 330 331
316 320 320 320 321 328 338 330 333 333 322 326 330 325 328 332 331 330 328 329 331 332 331 332 341 334 337 349 341 340 339 336 337 337 339 339 339 339 337 335 335 328 321 321 321 328 333 334 335 335 335 335 335 335 335 336 336 336 336 335 334 334 335 335 334 333 332 333 333 331 331 331 330 331 331 331 331 330 330 330 330 330 330 331 330 331 330 330 331 330 331 332 331 329 328 328 330
317 321 318 320 322 329 333 326 332 329 321 328 324 324 334 334 333 331 327 326 325 326 328 335 342 334 336 341 337 342 338 336 337 336 338 338 339 338 336 336 332 322 319 318 319 328 333 334 334 332 335 335 335 335 335 336 336 336 336 334 332 333 334 334 334 333 332 332 332 331 330 331 331 331 330 330 330 329 329 329 329 329 329 330 330 330 330 330 330 330 330 331 331 329 328 327 329
319 320 319 318 317 322 327 323 326 326 327 331 327 330 331 331 333 331 326 322 323 325 332 339 342 339 340 337 335 340 335 337 338 336 338 338 339 337 335 335 327 320 319 317 319 328 332 333 332 330 332 332 333 335 335 336 336 336 335 332 331 332 333 333 332 332 331 331 331 330 330 331 331 331 330 330 329 329 330 330 330 330 329 330 330 330 330 329 329 330 330 331 331 329 327 327 327
319 319 323 323 319 323 329 325 329 334 327 323 330 333 328 331 330 327 325 323 325 330 337 340 340 344 342 336 335 336 333 336 337 336 338 338 339 336 336 333 325 320 318 316 320 328 332 332 331 331 332 330 331 334 335 336 336 335 334 332 330 330 332 332 331 331 330 330 330 330 330 330 331 331 331 330 330 329 330 331 330 330 330 330 330 330 330 330 329 329 329 330 330 328 327 327 327
319 320 327 331 327 328 331 324 329 335 320 316 326 329 327 330 327 325 326 325 326 331 336 333 335 346 340 336 339 336 333 335 337 337 338 339 338 335 336 333 325 320 318 317 321 329 332 331 331 331 332 332 331 333 334 336 336 335 333 332 330 330 332 332 331 330 330 330 330 329 330 331 330 329 329 328 327 327 329 330 330 330 329 329 329 329 329 329 329 328 329 330 329 328 327 327 327
317 318 325 329 325 327 334 327 322 323 319 320 323 325 325 325 324 324 324 324 325 330 331 327 331 339 338 340 343 335 334 336 336 337 338 339 337 336 336 333 325 319 318 318 321 328 331 331 330 330 331 333 333 331 332 334 335 335 334 333 332 330 331 331 329 330 330 329 328 328 330 331 329 328 329 328 325 324 326 328 328 329 328 328 328 328 329 328 327 327 327 329 329 327 326 326 326
319 319 324 329 327 323 326 329 325 320 318 322 322 324 325 322 322 320 323 323 322 326 327 331 335 337 339 342 341 335 334 337 336 338 339 339 337 335 337 334 326 320 319 318 321 326 330 331 330 331 331 333 333 331 330 332 335 335 334 334 332 329 329 329 329 329 328 328 327 328 329 329 330 331 330 328 326 325 325 325 326 326 326 326 327 327 328 327 327 326 327 327 328 327 326 326 325
326 323 330 333 330 322 321 330 333 326 318 319 321 322 323 320 320 319 323 322 323 331 332 337 341 340 342 340 340 335 334 337 337 339 338 338 337 335 337 335 327 320 319 318 320 325 329 331 330 330 331 331 330 332 332 332 334 333 333 332 330 329 328 328 328 329 328 328 327 328 329 329 330 330 330 328 328 327 326 324 323 324 325 326 327 328 328 327 326 325 325 325 326 326 326 325 325
326 328 341 337 329 325 327 330 328 326 319 319 321 321 320 317 319 321 322 322 329 339 335 337 340 340 343 341 339 334 335 338 337 339 339 338 336 335 337 336 328 321 319 319 320 324 328 329 329 329 330 330 328 331 333 332 332 331 331 330 329 329 328 327 326 327 329 327 328 329 329 329 329 328 328 328 327 326 326 324 323 324 325 326 327 327 326 325 324 322 322 323 324 326 325 325 324
332 334 338 328 326 327 326 325 322 324 321 322 322 318 317 317 320 322 323 324 329 336 330 331 337 341 342 339 337 333 335 337 337 339 338 337 336 336 337 336 331 322 320 319 319 322 326 327 327 328 329 329 328 329 331 331 330 328 329 330 330 329 328 327 325 325 327 326 328 329 328 328 328 328 328 329 328 326 325 325 325 325 325 325 326 325 324 324 322 320 320 321 323 324 324 325 324
332 337 335 322 324 328 325 322 319 321 321 324 321 317 316 316 320 320 324 326 323 325 324 328 334 343 341 335 336 334 335 335 337 339 337 337 335 336 337 337 333 324 320 319 319 319 322 323 324 327 328 328 328 328 329 329 329 327 327 327 328 328 326 328 327 324 325 325 327 328 327 326 327 328 328 329 327 325 325 324 322 321 321 321 322 321 320 320 319 319 320 320 321 321 322 323 323
324 339 341 329 325 325 324 321 320 321 323 323 317 318 317 315 317 318 321 324 320 319 324 330 331 336 339 341 342 335 335 335 336 338 337 337 335 336 336 336 335 327 322 320 319 318 319 320 321 325 328 328 328 328 328 328 329 327 325 323 323 325 325 327 328 325 324 325 326 327 326 324 326 327 327 328 327 325 326 325 321 318 317 316 316 316 315 315 315 316 318 318 319 320 321 321 322
329 344 339 329 325 323 323 320 320 322 322 322 316 317 318 313 315 317 316 318 321 322 330 333 325 327 334 343 344 334 334 336 336 338 337 338 337 337 336 336 336 330 324 321 320 318 318 317 318 321 324 326 326 326 327 326 327 326 322 319 319 321 323 325 325 321 321 324 325 326 325 323 323 325 326 326 326 326 326 324 322 319 317 315 314 315 315 314 314 314 314 315 316 316 317 319 320
328 337 332 327 325 325 327 321 318 323 325 322 316 317 318 315 314 316 318 323 329 330 338 334 325 329 333 335 334 332 335 335 335 337 337 338 337 336 337 336 335 332 327 324 322 319 318 317 316 318 320 322 323 324 324 323 324 323 320 319 319 319 320 322 319 316 316 318 322 324 324 322 321 322 323 325 325 324 324 322 321 319 316 315 315 315 315 315 315 315 315 315 315 314 314 315 316
322 328 329 327 329 330 330 324 319 322 324 319 317 319 319 317 316 317 323 332 334 334 340 337 333 332 330 329 331 334 335 334 335 336 337 337 337 337 336 336 335 334 330 327 325 322 319 317 316 316 317 318 319 320 321 320 320 320 319 319 319 318 318 317 315 316 316 315 318 321 323 322 320 320 321 323 322 321 320 320 319 317 316 316 315 316 316 317 317 318 318 319 319 318 317 316 316
329 331 325 328 335 332 328 324 320 318 319 318 318 319 317 318 319 318 322 331 332 334 339 338 341 337 331 331 332 334 333 335 336 335 337 337 336 337 336 336 335 335 332 330 327 324 321 319 318 317 316 317 317 316 316 316 317 317 317 318 318 317 317 314 315 320 321 319 318 318 320 320 319 318 318 319 318 318 317 317 317 316 316 316 316 316 316 317 318 320 320 320 321 320 320 320 319
329 327 322 332 334 329 326 323 320 317 318 318 318 317 316 317 317 317 323 331 329 333 340 339 344 342 336 333 331 332 333 334 336 335 336 336 336 336 336 336 335 335 335 333 330 326 323 321 320 319 317 317 316 316 315 315 315 315 315 316 317 316 316 314 318 323 324 323 321 320 320 320 319 317 316 315 315 315 315 315 315 315 316 316 316 316 316 316 317 318 319 320 320 320 320 320 320
321 320 325 331 325 324 324 320 319 319 318 317 318 317 315 315 314 318 325 328 326 328 334 338 344 341 335 333 331 331 332 334 335 335 335 335 336 336 336 336 336 336 335 336 333 330 325 322 321 321 320 318 317 317 316 316 315 315 315 315 315 316 315 314 319 324 325 324 324 323 323 322 321 319 316 314 314 313 313 313 314 315 315 316 317 316 315 315 315 316 316 317 318 318 318 319 319
318 320 324 325 318 318 321 319 318 318 317 317 317 317 316 314 312 321 325 323 324 324 326 334 338 335 333 333 331 330 331 333 334 334 334 335 336 336 336 336 336 336 335 336 335 334 330 325 323 322 322 322 321 319 318 317 316 316 315 316 315 315 315 315 319 325 325 325 325 324 324 324 322 322 319 313 311 311 312 313 313 314 314 315 316 316 316 316 315 315 315 315 316 317 317 318 317
318 320 321 321 317 315 317 317 316 316 317 317 317 317 315 314 313 318 322 320 319 316 321 334 334 330 332 332 331 331 330 331 333 334 334 335 335 336 337 336 336 336 335 335 336 336 333 329 327 324 322 324 325 323 323 322 320 318 317 316 316 316 316 315 319 324 325 325 325 324 324 324 323 322 319 314 311 311 311 312 312 313 314 315 314 315 316 316 316 316 315 316 316 317 317 317 317
316 319 319 319 317 316 317 315 315 316 317 317 315 316 314 316 315 315 318 320 316 314 320 329 331 329 331 331 331 331 330 330 333 334 334 335 335 335 336 336 335 335 335 336 336 337 335 334 332 329 327 326 327 327 328 328 326 323 320 318 317 317 317 317 319 322 325 325 324 324 324 324 324 322 319 315 315 314 313 313 313 314 315 316 315 315 316 316 317 317 316 315 316 317 317 317 316
315 317 319 317 316 318 315 315 316 314 315 315 314 316 316 315 313 314 319 317 315 320 325 328 330 330 331 332 332 330 330 330 331 333 334 334 335 335 335 335 335 335 335 336 337 337 336 336 335 334 332 330 330 330 330 330 329 327 324 321 319 319 318 320 322 321 323 324 324 324 324 324 324 323 321 319 319 318 318 317 317 318 318 319 320 319 319 319 319 318 318 317 316 315 315 316 316
316 316 318 316 317 317 314 314 316 315 313 313 316 316 314 312 311 315 317 316 321 327 332 333 332 333 333 333 332 329 329 330 330 332 333 333 334 334 335 335 335 336 336 337 337 336 337 336 336 336 335 333 333 332 331 330 329 327 327 325 323 323 321 323 326 324 323 323 323 323 323 323 323 322 321 321 322 322 322 321 320 320 321 322 322 322 322 322 321 320 320 319 318 317 316 317 317
314 314 316 315 316 316 314 314 313 315 313 312 317 314 314 313 311 317 314 317 329 333 333 333 333 334 334 333 331 330 329 330 330 331 331 332 332 333 334 335 335 337 337 337 337 337 337 337 337 337 336 335 334 334 332 331 330 327 327 327 327 327 325 326 328 327 326 325 323 323 324 324 324 323 322 323 324 325 325 324 323 323 322 323 323 323 323 323 322 322 322 322 321 320 319 319 319
311 312 314 314 316 315 314 314 313 314 313 313 317 314 315 313 313 320 314 318 331 337 334 332 333 334 333 333 332 330 329 330 331 330 330 330 331 332 333 334 335 336 337 337 337 336 336 336 337 337 337 336 334 334 334 333 331 328 328 328 328 329 329 328 328 329 329 328 327 327 327 327 326 324 324 325 325 326 326 326 326 325 324 324 324 324 324 324 323 323 323 323 323 322 322 322 321
311 310 313 315 314 315 315 314 314 314 313 314 316 313 314 313 316 318 313 322 332 333 334 333 332 334 332 333 332 330 329 329 331 330 331 331 331 332 332 334 335 336 336 336 336 336 336 336 337 337 337 336 335 334 334 334 332 330 329 328 329 330 331 330 329 329 329 329 330 329 329 329 328 326 325 326 326 326 326 326 326 325 325 325 325 325 325 325 324 324 324 324 324 324 323 323 323
312 311 312 316 314 315 316 314 314 314 313 315 314 314 316 314 317 314 312 325 336 332 334 333 332 333 332 332 332 331 329 329 330 330 331 331 331 332 332 333 334 335 335 335 336 336 337 337 336 337 337 337 336 335 335 335 333 331 330 330 329 330 331 331 330 330 329 329 329 329 330 329 329 328 326 326 326 326 326 326 326 325 325 325 325 325 325 325 325 325 325 325 325 324 324 323 323
313 311 313 316 316 321 319 313 314 314 312 314 311 314 319 316 317 312 311 325 337 337 335 331 332 331 331 332 331 331 330 328 330 330 331 331 331 332 331 333 333 334 334 334 335 335 336 337 337 337 337 337 336 336 335 335 335 332 331 330 330 330 331 331 331 330 330 330 329 329 329 329 329 328 328 327 326 326 326 326 326 326 326 325 325 326 326 326 325 326 325 325 325 324 323 323 323
312 313 318 316 316 324 322 314 315 315 312 312 311 314 318 317 318 312 310 321 334 337 335 330 332 331 330 331 330 331 330 328 330 330 331 331 331 331 331 332 332 333 333 333 334 334 335 336 337 337 337 337 337 336 336 335 335 333 332 331 330 330 330 331 331 330 330 330 330 329 329 329 329 329 328 328 327 327 327 326 326 326 326 326 326 326 326 326 326 326 325 325 324 323 323 322 323
313 315 321 320 315 318 318 314 315 316 313 312 312 314 317 315 315 311 309 319 330 333 333 330 330 330 330 330 329 330 329 329 329 329 330 331 331 331 331 332 332 332 333 332 332 333 334 334 335 337 336 337 337 336 336 336 335 334 333 331 331 330 330 331 331 331 331 330 330 329 329 329 329 329 329 328 328 328 327 327 327 327 327 327 326 325 325 325 325 326 325 325 325 324 323 322 323
314 314 317 320 317 315 316 316 315 315 314 313 313 313 316 315 313 310 308 315 324 328 330 328 327 326 326 326 327 328 328 329 328 328 330 331 331 332 331 332 332 333 332 332 332 332 333 333 334 335 336 336 336 336 336 336 335 334 333 332 332 331 331 331 331 331 331 330 330 329 329 329 329 329 329 328 327 327 327 326 326 325 326 326 326 325 325 325 325 325 325 325 325 324 324 323 324
316 316 316 318 316 314 316 316 314 314 313 314 313 312 314 316 314 311 308 310 317 322 322 321 321 321 321 321 323 325 326 327 327 327 329 330 331 332 332 332 332 332 332 332 332 332 332 332 333 333 334 335 336 336 336 335 335 335 334 333 332 332 332 331 331 331 331 330 330 329 329 329 328 328 328 328 327 327 326 326 326 325 325 326 325 324 324 324 324 324 324 324 324 324 324 324 325
317 318 319 320 317 315 317 318 316 314 313 314 314 313 314 314 314 313 309 308 311 314 313 312 314 315 315 316 317 319 323 325 324 324 327 329 330 331 332 332 332 332 332 333 333 333 332 332 333 333 333 334 335 336 336 335 335 335 334 333 333 332 332 332 332 331 331 331 331 330 329 328 327 327 327 327 327 327 327 327 327 327 327 327 326 325 324 323 323 323 324 324 325 325 325 326 326
312 315 318 319 318 316 318 319 316 314 314 314 313 313 314 314 315 313 310 309 310 311 310 310 311 311 313 314 314 316 320 321 320 321 324 327 329 331 331 332 332 332 332 332 332 333 333 333 333 333 333 333 334 335 335 335 335 335 334 333 332 332 333 333 332 332 331 331 331 331 330 330 329 328 328 328 328 328 328 328 328 328 328 328 328 327 325 324 324 324 325 325 326 326 326 326 326
310 313 316 317 317 316 315 315 315 314 313 314 314 312 313 314 313 311 309 311 311 310 310 311 311 310 310 312 314 314 315 317 319 319 321 324 328 330 331 331 332 332 332 332 333 333 333 333 333 333 333 333 334 334 335 335 335 335 334 332 332 332 333 333 332 332 332 331 332 332 331 330 330 330 329 329 329 329 329 329 329 328 327 327 328 327 325 326 326 327 327 326 327 326 326 326 326
311 312 314 316 317 316 314 313 315 314 312 317 317 313 314 315 313 311 311 311 311 310 310 311 311 311 309 309 312 313 314 317 320 319 318 321 326 328 330 331 331 332 332 332 333 333 333 333 333 333 333 333 333 334 334 334 334 334 334 333 332 332 332 332 332 332 332 331 331 331 330 329 329 330 330 330 330 330 329 328 327 325 325 326 327 327 326 327 327 327 327 327 326 326 325 325 325
311 313 314 316 316 315 315 313 314 314 312 315 317 315 316 316 314 314 313 311 311 311 312 311 311 312 310 309 309 311 314 316 320 320 316 317 322 326 328 330 330 331 331 332 332 333 333 333 333 333 333 333 333 333 333 333 334 334 334 334 332 332 332 332 332 332 331 331 330 330 330 329 330 330 330 330 329 329 328 327 326 325 326 327 328 328 328 327 327 326 326 326 325 324 324 323 324
311 313 315 317 318 317 316 315 314 314 311 313 316 317 319 319 316 316 315 311 311 312 312 312 312 311 311 310 310 311 313 314 317 320 316 313 317 323 326 329 330 330 331 332 332 333 333 333 333 333 333 333 333 333 333 333 334 334 334 334 333 332 332 332 332 332 331 331 330 331 331 330 330 330 330 329 329 329 328 328 328 327 328 328 327 327 327 326 326 325 325 324 323 323 323 322 323
311 314 314 316 318 317 317 316 315 314 315 315 313 314 324 329 320 315 314 312 312 312 312 313 312 311 311 311 310 311 312 313 315 316 313 310 313 320 324 327 328 330 331 331 332 333 333 333 333 333 333 333 333 333 333 333 333 333 333 333 332 332 332 332 331 330 330 330 331 330 329 328 329 330 330 330 330 330 328 328 328 328 328 327 326 325 325 325 324 324 324 323 322 322 322 322 321
311 315 314 314 316 317 318 317 316 320 320 315 311 315 326 328 321 316 314 313 313 312 312 313 312 311 311 310 310 311 312 313 313 313 311 309 312 316 321 325 327 329 331 332 332 332 333 333 333 333 333 333 333 333 333 333 333 333 333 332 332 331 331 330 329 328 329 329 330 329 328 327 328 330 330 328 329 328 327 326 325 325 326 325 325 324 323 323 322 322 322 322 321 322 321 320 319
313 318 316 313 314 318 319 317 320 324 318 313 313 317 319 319 317 316 313 313 314 312 312 312 311 311 311 309 310 311 313 313 313 315 314 309 310 315 319 323 327 329 330 331 331 332 332 333 333 333 333 332 333 333 332 333 333 333 332 332 332 331 331 331 329 328 329 329 330 330 330 329 329 329 329 327 326 326 325 324 323 323 324 324 323 322 322 321 321 321 320 320 320 320 319 319 318
315 320 317 313 314 318 319 317 321 320 315 316 318 315 316 321 323 318 311 312 315 315 314 313 311 311 311 310 310 312 314 315 314 315 314 309 308 314 318 321 325 328 329 329 331 331 332 332 332 332 332 332 332 332 332 332 333 333 333 332 332 332 331 331 330 329 329 329 330 330 330 330 328 327 327 326 325 324 323 322 321 321 321 321 321 320 320 320 320 319 318 318 318 318 317 316 317
314 317 317 318 319 319 317 318 320 316 314 319 319 314 314 322 327 320 312 311 314 317 316 313 311 310 311 311 312 312 316 320 320 315 309 307 309 312 316 320 322 325 326 328 329 330 330 331 331 331 332 332 332 332 332 332 332 332 332 332 332 332 331 331 330 330 329 329 329 329 328 328 326 325 325 324 323 323 321 320 319 319 318 318 318 318 317 316 316 315 315 315 314 315 315 315 315
314 318 319 319 323 324 322 326 324 315 316 320 320 317 312 317 325 319 313 314 315 315 315 314 312 311 311 311 312 314 319 324 325 319 309 306 309 311 314 318 320 322 324 325 327 328 329 330 330 331 331 331 332 332 332 332 332 332 332 332 332 332 331 330 329 329 328 328 327 327 326 325 324 324 323 323 322 321 320 319 318 317 316 316 316 315 314 313 312 310 310 311 311 312 312 312 312
314 322 322 318 324 324 321 325 321 315 320 320 317 316 311 315 322 319 315 316 314 313 314 316 315 313 312 311 312 316 321 323 324 324 317 309 308 310 312 313 316 317 318 320 322 323 325 327 328 330 330 331 331 331 332 331 332 332 332 332 332 332 331 330 329 328 327 326 326 325 324 324 323 322 321 321 320 319 318 317 316 315 314 314 314 314 314 312 309 307 306 306 307 308 308 307 307
313 319 319 316 321 318 318 322 317 317 319 313 311 314 312 314 317 316 316 315 314 313 312 313 313 313 314 312 314 318 321 322 322 323 322 316 309 309 311 311 312 313 313 314 315 316 318 321 324 326 328 330 331 331 331 331 331 332 332 332 331 331 331 329 329 328 327 326 325 324 323 323 321 321 320 320 319 318 317 315 314 313 312 312 311 310 311 310 307 306 304 303 302 302 303 302 301
313 315 315 318 320 316 317 319 316 318 318 311 309 313 315 316 316 316 316 315 314 311 309 310 310 311 312 312 315 319 318 319 320 320 324 321 310 308 311 312 312 312 312 312 311 311 313 315 318 322 325 328 330 331 331 331 331 331 332 332 331 331 330 329 328 328 327 325 324 324 323 322 321 320 319 318 317 316 314 312 310 309 308 307 307 306 306 306 305 304 303 301 300 300 299 298 297
314 316 316 321 325 322 320 319 321 323 319 313 310 314 321 321 316 316 314 313 314 313 314 314 314 314 313 312 316 319 318 317 318 319 321 315 307 308 311 311 312 312 312 312 311 310 311 312 315 319 323 326 328 330 331 331 331 331 331 331 331 330 329 328 327 326 326 325 324 323 321 320 320 319 318 316 314 312 309 307 306 306 305 305 304 303 303 302 301 300 299 298 297 297 296 295 294
316 317 317 318 322 327 323 317 323 326 320 316 312 316 325 319 312 313 312 313 315 317 319 318 321 320 316 317 319 317 317 318 317 319 321 312 305 308 311 310 312 312 312 312 312 311 311 312 317 320 323 325 327 329 330 330 330 330 330 330 329 329 328 327 326 325 324 324 324 322 320 319 319 317 315 313 310 307 306 306 305 304 303 302 301 300 299 298 298 297 296 295 295 294 293 293 293
315 314 317 316 316 325 322 313 316 319 317 318 314 315 322 316 312 317 316 315 316 317 320 322 323 322 321 323 320 316 318 318 317 318 318 311 305 308 310 311 313 312 312 312 311 311 311 314 319 321 323 325 326 328 328 329 329 329 329 329 328 328 327 326 325 324 323 323 322 320 318 318 317 314 311 308 306 305 305 304 303 301 300 299 298 297 296 295 295 294 294 293 293 292 292 292 292
315 315 317 314 312 320 323 316 319 318 316 322 317 313 318 316 315 320 316 314 317 317 320 322 322 323 325 324 318 316 316 315 315 315 312 307 305 308 311 312 314 313 312 311 311 311 312 314 319 322 323 324 325 326 327 327 328 327 327 326 326 326 326 325 325 324 323 322 319 317 316 315 313 310 307 305 304 304 303 301 300 298 297 296 295 295 294 294 293 293 293 292 292 291 291 291 291
313 316 314 314 316 318 317 315 320 317 314 323 320 312 315 316 319 322 314 313 319 315 316 320 322 324 324 321 318 317 315 314 314 314 313 307 304 307 310 311 313 314 313 312 312 311 312 315 318 320 322 324 324 325 325 326 326 326 325 325 325 324 324 323 323 322 321 319 316 314 313 311 308 306 304 303 303 301 300 298 297 296 295 294 294 293 293 293 292 292 292 291 291 291 291 291 290
311 311 310 314 319 319 316 316 319 317 316 322 319 313 317 320 319 321 316 316 317 313 316 322 324 324 320 316 318 317 315 315 313 313 314 307 303 306 309 311 312 313 314 314 313 312 312 315 317 319 321 322 323 324 323 324 324 324 324 323 323 323 322 321 320 319 317 315 313 312 310 307 305 304 303 301 300 298 297 296 295 294 294 293 293 292 292 292 292 292 291 291 291 290 290 290 290
313 313 311 313 313 315 318 317 317 320 321 323 317 315 325 326 317 317 316 315 315 312 316 320 319 319 317 314 316 315 313 314 311 311 312 305 302 305 307 308 309 311 313 314 314 314 313 315 317 318 319 320 321 321 322 322 322 323 323 322 321 320 320 319 317 316 314 313 311 308 306 304 303 302 300 299 297 296 295 294 294 293 293 292 292 292 292 291 291 291 291 291 290 290 290 290 289
316 315 315 316 315 318 319 315 315 317 317 320 318 317 328 328 314 312 312 312 314 312 314 315 314 316 317 314 314 313 313 312 310 311 310 303 301 303 305 305 307 309 311 312 314 314 314 315 316 317 318 319 320 320 321 321 321 321 321 320 319 318 317 316 314 313 312 310 307 305 303 302 301 299 298 296 295 294 294 293 293 292 292 292 292 291 291 291 291 291 291 290 290 290 289 289 289
Wind_Speed
6 5 4 3 2 3 1 3 2 2 2 1 2 0 2 2 2 1 1 1 2 2 3 2 4 4 4 5 7 6 3 2 4 4 3 2 14 20 14 17 17 15 14 15 17 16 15 14 13 12 12 11 10 10 11 13 13 13 14 15 15 14 13 12 12 14 15 13 12 13 14 15 15 15 15 15 15 15 16 16 16 16 16 16 15 16 16 16 16 16 16 16 16 16 17 16 15
6 5 3 2 5 3 1 3 2 3 4 2 3 2 2 2 1 4 5 3 3 2 1 6 8 7 7 7 7 5 3 2 2 3 1 8 18 15 13 18 16 14 14 14 16 16 15 15 14 13 12 12 11 11 12 13 14 14 15 15 14 14 13 12 12 14 15 13 12 13 14 15 15 15 15 15 15 15 15 15 15 15 15 15 15 15 15 15 16 15 15 15 15 17 18 15 14
5 5 2 5 4 3 1 3 2 1 3 1 4 3 1 2 4 5 6 5 7 6 4 5 6 5 5 6 4 3 1 2 4 1 4 14 14 12 17 17 15 14 12 14 14 15 15 15 15 13 11 12 12 12 13 14 14 15 15 15 15 14 13 12 12 12 13 13 12 13 13 14 14 14 14 15 14 14 14 14 14 15 15 15 15 15 14 15 15 15 15 14 15 17 17 15 13
5 4 1 5 2 4 4 3 2 3 0 3 3 4 2 5 6 5 5 5 7 5 2 3 4 2 4 6 2 2 1 1 2 1 5 12 11 16 20 17 16 13 12 13 13 15 16 16 16 14 13 12 12 13 13 14 14 15 15 15 15 13 12 11 11 12 13 13 11 11 12 13 14 14 13 15 15 14 14 14 14 14 15 15 14 14 14 14 14 14 13 13 14 15 16 16 14
5 2 2 3 2 2 3 2 2 3 3 4 2 5 4 6 6 6 4 3 3 3 2 3 2 2 3 4 1 2 2 2 2 2 7 10 15 20 20 18 16 13 13 12 14 16 16 16 15 14 14 12 12 12 13 14 14 15 15 14 13 12 12 11 11 12 13 13 12 12 13 13 13 13 12 13 14 14 14 14 14 14 14 14 14 13 13 13 13 13 12 12 13 14 15 16 15
2 3 5 4 3 1 3 0 1 1 5 5 3 5 5 6 7 6 3 3 2 1 1 4 3 2 3 2 1 4 3 3 5 6 10 15 19 21 20 18 16 14 14 13 15 17 16 15 13 13 13 12 12 12 13 13 13 14 14 12 12 12 12 11 12 12 13 12 12 13 13 12 12 12 12 12 13 14 14 14 14 13 13 13 13 13 13 12 12 12 11 11 12 13 15 15 15
1 2 4 5 2 2 4 2 3 3 5 5 5 5 7 7 6 6 5 3 1 3 3 3 5 6 2 2 2 1 2 6 9 10 13 20 22 21 20 18 16 15 14 14 15 17 17 15 14 13 13 12 12 12 13 12 12 13 13 11 12 12 12 12 12 12 12 12 12 13 12 12 12 12 12 11 12 13 14 14 13 13 13 13 13 12 12 12 11 11 11 10 11 12 14 14 14
2 1 1 4 2 3 4 1 3 3 3 4 4 5 9 7 6 6 5 3 2 0 2 2 3 6 1 2 2 2 1 8 10 14 18 23 24 22 20 18 17 16 15 15 15 17 17 15 15 14 14 13 12 12 12 13 12 12 12 11 12 13 13 12 12 12 12 12 12 12 11 11 11 10 10 10 10 12 13 13 13 12 12 12 12 12 11 11 10 10 10 10 10 11 12 13 13
3 2 1 3 2 2 2 2 3 3 3 4 3 3 5 5 5 5 4 1 2 4 3 4 2 4 1 3 1 3 3 9 13 18 21 24 25 22 21 18 17 17 16 15 16 17 17 16 15 15 15 14 13 12 12 12 12 12 12 12 13 13 13 13 13 12 11 12 12 11 10 10 10 8 9 10 9 9 11 11 12 12 11 11 11 11 10 10 10 10 10 10 9 10 11 11 11
3 4 2 2 2 1 3 2 3 3 4 3 3 3 4 5 4 3 4 3 3 5 2 1 4 5 4 2 1 3 3 15 20 22 23 25 24 23 21 18 16 16 17 16 16 17 17 17 15 15 16 16 14 13 12 12 12 12 13 13 13 12 13 14 13 12 10 11 12 11 10 9 9 10 10 9 8 8 8 9 10 10 10 10 10 10 9 9 9 9 9 9 9 9 9 9 9
3 4 3 4 3 1 2 3 4 4 4 3 1 2 4 4 5 2 2 4 2 4 3 1 5 5 4 1 2 1 8 21 24 25 25 24 23 22 21 18 16 15 16 17 16 17 17 17 15 15 15 16 15 14 14 13 12 12 11 12 11 11 12 13 13 13 12 12 12 11 11 10 10 10 10 8 8 9 8 8 8 9 10 10 10 9 8 7 7 8 9 9 10 9 8 7 7
2 3 4 4 2 2 3 2 5 4 5 2 1 3 3 4 5 4 4 5 2 4 4 2 5 5 5 1 2 1 13 20 23 27 26 24 23 21 20 19 17 15 16 16 17 17 17 17 16 15 15 15 15 15 15 14 12 10 9 9 9 10 10 11 12 13 13 14 13 11 12 11 11 10 10 9 8 8 8 7 8 9 9 9 8 7 7 6 6 8 9 10 10 8 6 5 5
3 2 5 2 3 2 3 2 4 3 4 2 4 2 5 5 4 7 7 5 4 4 4 5 7 5 3 1 1 2 11 17 22 28 26 24 23 20 19 18 17 16 16 16 16 17 17 17 16 16 16 16 16 16 15 14 12 11 10 9 9 9 9 9 10 12 13 14 14 12 12 11 10 11 10 10 9 8 8 8 9 9 8 8 7 7 6 6 7 8 9 9 8 7 5 4 3
2 3 5 2 1 2 4 1 1 2 3 5 3 2 5 2 4 7 8 7 5 4 2 5 8 6 2 2 1 2 10 17 24 27 25 24 22 20 19 18 17 16 16 16 16 16 16 16 16 17 17 17 16 16 14 13 12 11 10 10 9 9 9 9 9 11 11 12 13 11 10 10 9 10 10 9 9 8 7 7 7 6 6 6 7 7 7 7 8 9 9 8 7 6 5 4 3
2 2 4 3 1 1 3 1 2 5 4 4 4 5 4 1 3 5 5 8 5 4 4 5 5 2 3 6 4 7 15 21 25 27 26 24 22 21 19 19 17 16 16 16 16 16 16 15 16 17 17 17 16 15 14 11 10 10 9 8 9 9 10 10 9 9 10 11 11 10 9 9 9 9 9 8 7 7 6 5 4 5 5 5 6 7 8 8 8 8 8 7 6 5 4 4 3
3 3 4 3 1 1 3 2 2 3 5 5 3 6 6 3 2 4 3 5 3 1 3 3 3 0 6 8 7 16 23 24 26 27 26 24 23 22 20 20 18 17 16 16 16 16 15 15 16 16 16 16 15 14 13 11 10 10 8 9 9 9 10 9 8 8 9 10 10 10 8 8 9 9 8 7 7 6 4 3 2 3 4 5 6 7 8 7 8 8 7 6 6 5 4 3 3
3 3 4 1 2 3 3 4 4 3 5 5 3 6 8 2 1 2 1 5 5 2 1 1 1 1 7 5 7 25 27 26 28 26 25 24 23 21 19 19 17 16 16 16 16 16 16 15 15 15 15 14 14 14 13 11 11 10 10 10 10 9 9 8 7 7 8 9 10 10 8 7 8 8 8 8 7 5 4 2 2 2 3 4 5 6 6 7 7 7 6 6 6 5 4 3 2
3 2 3 2 3 4 5 7 7 5 5 6 7 7 9 6 3 1 3 5 3 2 3 3 3 3 4 4 13 28 27 27 28 26 25 24 24 22 20 19 18 18 17 17 16 16 17 16 15 15 15 14 13 13 12 11 11 11 10 10 9 9 8 8 7 8 8 9 9 9 9 7 6 7 8 7 6 5 4 2 2 2 2 3 4 4 4 5 5 5 5 5 5 4 4 4 3
3 2 2 3 5 5 6 7 6 4 5 7 7 6 8 9 7 4 3 2 1 3 2 4 4 3 2 7 20 28 27 28 27 26 26 25 25 23 22 20 20 20 19 19 17 17 18 17 16 15 15 14 13 12 12 12 11 11 10 10 9 9 8 8 9 9 9 9 9 9 8 7 6 6 6 6 6 5 4 2 2 2 2 3 3 3 3 3 3 3 3 3 3 3 3 3 3
1 3 1 5 6 5 5 6 7 5 4 8 7 4 5 6 6 4 5 5 4 6 5 1 3 3 5 11 21 25 25 26 26 26 25 27 27 24 23 21 21 23 22 22 20 18 18 18 16 15 15 14 14 13 12 12 11 10 10 10 9 9 9 9 10 9 9 9 9 9 8 7 6 5 5 6 6 5 4 3 3 2 2 3 3 3 3 2 1 1 1 1 1 2 2 2 3
1 3 4 5 3 3 6 7 7 5 6 7 6 4 4 5 4 4 8 7 5 7 7 7 8 9 10 11 18 22 23 22 23 24 23 25 26 24 24 23 23 23 24 23 22 20 19 18 17 16 15 14 14 13 13 12 11 11 10 10 10 10 10 10 11 10 9 8 8 8 7 6 5 4 4 5 5 5 4 4 4 3 3 4 4 3 3 2 2 2 2 2 3 3 4 4 4
1 3 5 4 4 3 6 5 6 5 6 6 6 7 6 4 2 5 11 9 6 7 8 8 8 12 16 15 18 19 19 20 20 21 23 23 24 24 23 22 21 20 22 24 24 23 20 19 18 17 17 15 15 14 13 12 12 12 11 11 10 10 10 10 11 11 9 8 7 6 5 5 4 3 2 3 5 5 5 5 4 4 4 4 4 3 3 3 3 3 3 4 5 5 5 6 6
2 4 3 3 3 4 4 1 4 5 8 9 8 6 6 6 2 6 11 10 6 5 7 8 8 13 20 21 19 17 16 18 20 22 24 24 24 24 24 24 23 23 24 25 25 24 22 21 19 18 18 17 16 14 13 13 12 12 11 11 11 10 10 10 11 11 10 9 7 6 5 4 3 2 2 2 4 5 5 5 4 4 4 3 3 3 3 4 4 4 4 5 6 7 7 7 7
2 5 5 4 4 5 3 2 3 5 8 9 6 5 8 8 5 3 7 9 5 5 4 10 10 13 17 18 16 17 18 20 21 24 25 26 27 28 27 27 27 27 26 26 26 25 24 22 21 20 19 18 17 16 15 14 13 12 12 12 11 11 11 10 10 10 10 9 8 7 6 5 4 3 2 3 4 5 4 5 4 4 4 3 3 3 3 4 5 5 6 7 7 9 10 9 10
3 5 5 3 3 4 5 2 2 4 4 4 7 6 7 6 4 4 8 10 5 2 6 11 11 11 12 13 14 15 16 19 20 22 24 25 27 28 28 28 28 27 27 28 26 25 25 23 23 22 21 20 18 17 16 14 14 13 13 14 13 12 12 11 9 11 11 9 9 7 7 6 5 5 4 3 4 5 4 4 4 4 4 4 4 4 5 6 6 7 8 9 9 10 11 11 11
4 5 4 4 5 5 5 2 3 4 2 5 8 5 3 2 2 3 9 7 1 3 8 10 11 11 10 11 13 15 15 17 20 21 23 23 24 24 25 26 27 28 29 29 27 27 26 24 24 23 22 22 20 19 17 15 15 15 15 15 14 13 13 12 10 11 12 11 10 9 8 7 6 6 5 5 5 4 4 6 6 5 5 5 6 6 7 8 9 9 10 11 11 11 12 12 12
6 5 4 6 5 4 3 2 2 2 1 4 8 5 2 3 1 4 7 4 5 7 8 8 11 11 12 10 11 15 16 19 22 21 21 21 23 25 26 27 28 29 30 29 29 27 26 26 25 24 23 22 21 20 19 18 17 16 16 15 15 14 13 12 11 11 11 11 11 9 8 7 7 7 7 7 7 6 5 6 7 8 8 7 8 9 9 10 11 11 12 12 13 13 13 14 14
10 7 6 6 4 4 1 0 2 2 1 3 7 4 3 3 0 6 5 4 7 9 9 9 11 11 11 11 10 12 16 20 22 21 21 23 25 26 28 29 30 30 31 31 30 28 27 27 26 26 25 23 22 22 21 20 19 18 17 16 16 14 12 12 12 11 10 10 9 9 8 7 8 9 8 8 8 8 8 8 8 9 9 9 9 10 11 12 12 13 13 13 14 15 15 15 16
9 5 5 7 6 5 4 2 2 1 2 4 7 3 3 3 6 8 3 5 6 8 10 9 10 9 9 10 8 9 14 17 20 21 25 26 26 28 29 31 32 32 32 31 30 29 29 28 28 27 26 25 24 24 22 21 20 19 18 18 17 15 14 14 13 12 11 10 9 9 9 8 8 9 9 10 10 10 10 10 10 10 10 10 10 11 11 12 13 13 14 14 15 16 16 17 18
7 4 3 4 4 5 5 3 1 2 3 3 5 2 5 8 10 7 2 6 8 7 8 9 8 7 8 8 7 8 11 15 19 24 27 27 28 29 30 31 33 33 32 31 30 31 30 29 29 28 28 27 26 25 24 23 22 21 20 19 17 16 16 16 14 12 12 11 11 10 10 10 9 8 9 11 12 11 10 10 11 10 10 10 10 11 11 12 12 13 14 15 16 17 18 19 20
5 4 3 1 1 5 6 0 4 4 2 3 5 4 6 8 10 6 4 7 9 9 8 8 7 6 7 7 8 8 10 15 20 24 26 27 28 29 30 31 32 32 32 31 31 31 30 30 30 29 30 29 28 27 26 25 23 22 21 20 19 17 17 17 16 14 13 13 13 12 11 11 10 9 10 11 12 12 12 11 11 10 10 10 10 11 11 12 13 15 15 15 17 18 20 20 21
3 4 3 1 3 5 7 1 7 7 1 3 6 4 6 8 9 6 5 7 8 9 8 8 7 7 7 6 8 7 8 14 18 21 25 27 28 28 30 31 31 32 32 31 31 30 30 31 31 30 31 30 29 29 27 26 24 23 22 21 20 18 18 18 17 15 14 14 14 15 13 11 10 10 10 11 11 12 12 12 12 11 11 10 10 11 12 13 14 15 15 16 18 19 20 21 20
2 3 4 2 4 3 4 3 4 5 2 1 3 3 4 6 6 4 5 9 8 8 8 8 8 8 8 6 7 7 7 9 13 20 25 27 28 29 30 31 32 33 32 32 31 31 31 31 32 32 31 31 30 30 29 28 26 24 23 22 21 20 19 19 18 16 16 15 15 15 14 11 10 11 11 11 10 11 12 12 14 14 13 12 11 13 15 15 15 16 16 16 18 19 19 21 22
3 1 3 3 3 3 2 4 4 2 3 4 4 3 5 6 5 4 4 8 8 8 9 9 9 8 7 7 7 7 7 8 11 20 27 29 30 30 30 30 31 32 32 32 32 32 32 32 33 33 32 32 31 31 30 29 27 25 23 23 22 22 21 20 19 18 18 17 16 15 14 12 10 10 11 11 11 12 13 12 14 14 14 14 14 15 16 15 15 16 16 16 17 19 20 22 24
3 2 3 3 3 3 4 4 3 4 3 5 6 5 10 10 6 4 4 6 8 10 9 8 8 8 7 7 7 8 8 9 14 22 27 29 30 30 30 30 31 32 33 33 33 33 32 33 33 33 33 32 32 31 30 29 28 26 24 23 23 23 22 21 20 20 19 18 17 16 15 13 13 13 13 13 14 15 13 10 10 10 11 13 14 14 14 14 14 14 15 16 17 19 21 23 25
4 4 5 4 4 4 5 4 5 4 5 6 7 7 11 11 7 5 4 4 6 8 6 5 6 6 6 6 7 8 8 11 18 23 25 27 30 30 30 30 30 32 32 33 33 34 34 34 34 34 34 33 32 32 31 31 29 28 26 24 25 25 24 23 22 21 19 18 18 17 16 15 13 12 13 15 16 16 14 12 11 10 10 11 12 12 12 13 13 13 15 17 19 21 22 23 22
8 5 4 6 6 5 5 4 6 1 5 7 8 8 10 10 8 6 4 4 6 8 7 7 7 6 7 8 9 10 10 12 16 19 22 25 28 29 29 30 29 29 31 32 33 34 35 35 36 36 35 34 34 34 33 32 31 29 27 26 26 26 24 24 23 22 20 19 19 19 19 18 16 13 13 14 15 16 16 16 17 15 12 13 14 13 12 13 14 15 17 18 20 22 22 21 21
8 6 4 6 6 5 4 3 4 3 3 6 4 5 10 10 9 5 3 5 8 10 9 9 10 9 8 9 11 11 9 8 9 14 19 23 26 28 29 29 29 29 30 32 33 35 36 36 36 36 36 35 35 35 34 33 33 31 29 27 26 25 24 24 23 23 21 20 19 19 20 18 17 17 16 16 17 18 17 17 17 16 13 14 13 12 12 14 15 16 17 18 19 20 21 20 19
8 5 4 6 4 3 3 2 4 3 2 4 1 4 9 11 8 4 5 7 8 9 10 11 11 10 9 10 11 10 9 8 8 11 16 21 25 27 28 29 30 31 32 32 33 34 35 36 37 36 36 36 36 35 35 34 33 31 29 27 25 25 24 23 23 22 20 20 19 20 20 17 16 17 18 18 18 16 15 14 14 13 12 13 14 13 14 16 17 17 17 18 18 18 19 18 17
7 4 4 4 3 3 2 3 2 3 1 1 2 3 7 8 6 5 8 8 6 6 8 9 8 10 10 10 9 9 10 10 10 10 12 18 22 24 27 29 31 32 32 32 33 34 36 37 38 37 37 37 36 35 35 34 32 30 28 26 24 23 22 21 21 21 21 20 19 20 19 16 15 16 15 15 14 12 11 12 12 11 13 15 16 14 13 14 15 14 13 13 13 14 15 15 15
6 5 6 4 3 5 3 2 1 2 2 2 4 2 6 6 5 8 7 5 5 6 7 9 8 9 8 7 7 8 10 10 11 11 10 14 19 23 27 30 31 31 32 34 35 36 36 37 38 37 37 37 37 36 34 33 31 28 26 23 21 20 20 20 19 20 20 20 20 19 16 14 14 14 12 14 15 14 13 13 14 14 14 12 10 7 6 7 7 7 7 7 7 8 10 12 12
6 6 8 7 6 6 3 4 5 2 3 3 2 1 6 5 5 9 6 2 5 5 6 11 10 8 7 8 9 9 9 9 9 10 10 12 17 22 25 28 29 31 34 36 36 37 37 37 37 37 37 37 37 36 35 34 32 30 28 25 22 20 19 19 19 18 18 18 18 16 13 13 13 12 12 13 13 12 9 7 6 7 6 4 3 3 4 6 6 6 6 7 7 7 7 8 10
6 5 8 9 7 5 5 7 6 4 5 3 1 5 6 6 5 9 4 3 8 6 6 11 10 7 8 9 10 8 8 8 8 9 9 11 16 19 22 26 29 32 35 36 35 36 36 36 36 36 36 36 36 36 35 34 33 32 30 28 26 24 22 21 20 18 16 16 15 14 14 13 12 10 10 9 6 6 6 3 3 3 2 3 4 6 7 8 8 7 7 8 8 7 6 7 8
6 4 7 9 7 7 7 8 6 3 3 2 2 3 4 5 6 6 2 2 8 8 9 11 9 10 11 10 10 9 10 8 8 9 9 11 16 19 23 27 31 33 33 33 33 34 35 35 35 35 35 35 35 34 34 34 33 33 31 28 27 26 25 23 21 17 15 14 13 13 13 11 10 9 8 7 5 4 6 7 7 7 6 7 7 8 10 10 9 9 10 11 11 10 9 9 8
7 3 5 6 6 7 7 7 4 0 1 3 3 3 3 6 6 4 2 2 7 8 11 13 12 13 12 10 10 10 9 8 8 9 10 12 17 21 24 26 28 30 29 29 31 32 33 33 33 33 33 34 34 33 33 33 33 32 31 29 27 25 24 22 19 16 14 13 12 12 11 10 9 7 8 9 9 9 11 11 10 10 10 10 10 11 12 12 12 13 14 13 12 11 11 10 9
4 4 5 4 3 3 3 5 4 3 2 7 7 6 4 5 6 3 1 2 7 8 9 10 11 12 10 9 10 9 8 7 7 8 10 13 16 18 20 21 23 25 25 25 27 28 29 31 31 31 32 32 32 32 32 32 31 31 30 29 27 25 23 20 17 15 14 14 14 14 13 11 9 9 10 11 11 11 11 11 11 10 10 10 11 11 11 11 11 11 10 10 9 8 8 7 7
4 5 5 5 4 4 3 2 4 2 5 8 7 7 5 5 5 4 4 5 7 8 8 8 8 9 9 10 10 8 7 6 6 6 8 11 12 13 16 17 19 20 21 22 23 24 26 27 29 30 30 30 31 31 30 30 30 30 30 29 28 26 23 20 18 17 17 17 16 15 13 11 10 10 10 8 8 9 10 10 9 7 6 6 6 6 5 5 5 4 3 3 3 2 3 3 4
4 4 4 3 3 3 3 3 2 4 8 6 3 3 4 5 5 4 6 6 6 8 8 9 8 8 8 8 8 7 7 6 6 5 6 7 8 10 13 16 17 18 19 20 21 22 22 24 25 27 28 29 29 29 29 29 29 29 29 29 28 26 24 22 20 20 19 19 17 16 13 10 10 10 9 8 9 10 10 8 7 5 4 4 3 2 1 1 3 4 5 5 4 4 3 3 2
4 3 5 4 1 1 2 2 2 5 6 3 1 2 3 6 7 7 8 9 8 8 8 8 7 8 8 7 7 6 5 5 6 5 5 5 7 10 13 15 16 17 18 19 19 20 21 21 22 24 26 27 28 28 28 28 28 28 28 28 27 25 24 23 22 22 21 20 18 16 13 11 12 12 11 11 11 10 9 8 6 5 4 3 2 2 1 1 3 5 7 7 7 8 7 6 6
7 5 7 7 3 4 6 4 1 4 4 2 1 1 3 4 5 9 12 11 7 7 7 7 7 8 8 7 6 5 5 5 5 5 5 5 7 11 13 14 15 15 16 17 17 18 19 20 21 22 24 25 26 27 27 28 28 28 28 28 27 26 25 24 24 23 23 21 18 15 13 14 14 13 13 12 11 10 8 7 6 5 4 4 4 4 5 5 5 5 6 7 7 8 7 7 7
6 3 4 6 5 5 6 4 3 4 2 2 2 1 4 4 4 8 10 8 5 4 6 6 6 7 7 5 5 5 6 5 4 5 5 6 8 11 12 13 13 14 14 15 16 17 18 19 20 21 22 23 24 25 27 27 28 27 27 27 27 26 26 25 25 24 23 21 17 15 14 15 15 14 13 12 10 9 8 7 7 7 8 8 8 8 8 7 7 7 7 7 7 7 6 6 7
4 1 3 5 5 5 3 3 5 4 1 1 2 3 4 4 6 6 4 6 6 4 5 4 6 6 3 4 5 6 6 5 5 5 5 6 8 10 10 11 12 12 13 15 16 17 18 18 19 20 21 22 23 24 25 26 26 26 26 26 27 27 26 26 25 23 21 19 17 16 16 16 16 14 13 11 10 9 9 9 10 10 10 10 10 9 9 8 8 7 7 6 6 7 6 6 6
2 3 5 5 3 7 5 2 0 3 2 3 2 3 5 3 6 6 4 6 7 6 5 4 5 4 3 5 6 5 6 6 6 6 5 6 8 9 10 11 11 12 13 15 16 17 18 18 19 20 20 21 22 23 25 25 26 26 26 26 26 27 27 26 25 22 20 18 16 16 17 17 16 14 13 12 12 12 12 12 12 12 11 10 10 9 8 8 7 6 7 6 6 6 5 5 5
4 4 6 3 2 4 4 2 2 3 3 4 0 3 4 1 3 5 5 5 9 9 7 5 5 4 6 6 6 6 6 5 5 5 5 6 8 10 11 11 11 12 12 14 15 15 16 17 19 21 22 22 23 23 25 26 27 27 26 26 26 26 26 25 24 23 21 19 18 18 18 17 16 14 14 14 15 15 14 13 12 12 11 10 9 9 8 7 6 6 6 6 6 6 5 4 5
4 4 3 3 3 3 1 3 2 1 3 4 3 3 3 4 5 4 3 7 10 9 6 5 7 7 7 6 6 6 5 4 5 5 4 5 7 10 11 11 12 12 12 12 13 14 15 17 19 21 23 23 24 24 26 26 27 27 26 26 25 25 25 24 23 22 20 19 19 19 18 17 17 17 17 17 17 16 15 14 12 12 11 9 8 8 7 7 6 6 6 6 5 5 4 4 5
2 1 1 1 3 5 3 3 3 4 4 3 3 3 3 5 6 5 7 10 11 8 5 7 10 9 8 7 7 7 6 6 5 5 4 5 8 10 11 12 12 13 13 13 14 15 17 18 19 21 22 23 24 25 26 26 26 26 26 25 25 24 24 22 21 20 20 20 20 19 19 19 20 20 19 18 17 16 15 13 12 11 10 9 8 8 8 7 6 5 5 5 5 4 4 5 6
2 2 4 3 0 1 2 1 3 4 3 3 2 2 5 7 5 8 12 12 9 8 7 8 9 8 8 7 7 7 6 6 5 5 5 5 8 10 10 11 11 12 14 14 15 16 18 19 20 22 23 23 24 25 25 26 26 26 26 26 25 24 23 21 20 20 21 21 20 20 21 22 22 21 20 19 18 16 14 13 12 11 10 9 8 8 7 6 5 4 4 4 4 4 5 6 7
3 3 4 4 2 3 3 4 1 2 2 4 4 2 7 6 4 9 12 8 4 5 7 7 7 7 8 7 7 7 6 6 6 6 5 6 9 10 10 11 11 12 14 15 16 18 19 21 21 22 23 24 25 25 25 25 25 25 25 25 24 23 22 22 23 23 22 21 22 23 24 24 23 22 20 18 17 16 14 12 12 11 10 9 8 7 6 5 4 4 4 4 4 5 7 8 9
Wind_Direction
347 344 324 285 176 149 21 66 69 324 68 79 308 190 224 219 192 167 160 294 46 353 306 57 68 77 97 120 139 137 113 155 168 148 202 236 144 149 151 149 152 149 143 141 143 141 144 146 139 136 136 137 131 122 122 120 118 118 115 110 104 101 100 94 93 95 94 90 83 84 88 88 89 88 88 88 85 84 83 83 83 83 82 82 83 84 85 91 95 93 92 92 92 89 88 88 85
347 340 337 123 101 99 255 72 87 333 42 9 292 172 249 310 140 181 203 211 138 166 161 95 86 77 76 94 108 106 56 34 146 170 152 139 144 149 152 153 155 150 144 144 147 148 149 144 132 133 136 132 127 121 120 120 120 119 115 109 105 104 102 99 95 97 99 93 89 93 93 90 91 91 90 87 84 82 82 84 86 86 84 83 84 84 86 92 96 96 93 92 94 90 87 88 87
345 327 343 132 87 47 62 43 81 55 58 289 276 248 254 147 181 206 215 185 147 159 151 98 82 76 72 70 58 80 61 40 112 142 119 139 146 151 156 157 154 148 143 145 149 149 146 136 128 134 136 129 125 122 121 123 121 118 115 111 110 107 104 103 101 101 101 99 100 101 94 90 95 94 91 89 86 84 85 86 87 87 85 83 84 86 88 93 98 99 94 90 95 90 85 87 88
336 324 196 153 59 30 63 37 121 116 159 226 253 268 232 173 190 208 213 173 153 160 160 67 51 14 77 92 74 80 109 60 98 103 128 145 154 155 158 157 152 146 142 144 148 147 144 138 135 137 131 125 124 122 123 122 120 118 115 114 113 109 107 106 105 105 104 105 104 101 95 95 99 97 95 93 89 88 87 87 89 90 88 86 85 86 88 94 100 102 97 92 95 91 86 87 88
326 357 114 144 76 51 90 64 107 109 232 195 184 266 237 187 178 180 199 226 219 217 196 89 72 304 62 100 126 125 142 114 123 126 120 146 158 155 157 155 150 143 145 145 147 149 146 144 142 139 132 126 123 119 121 120 122 120 116 118 115 112 114 112 110 109 110 110 103 101 104 101 100 98 98 97 93 91 89 87 88 90 89 88 87 87 89 95 101 104 101 96 96 93 90 89 88
322 111 67 70 87 103 111 159 192 208 236 169 164 254 224 188 177 168 176 255 272 258 180 98 133 146 70 15 67 143 174 132 144 154 135 149 158 157 156 153 149 144 147 147 150 153 148 148 145 139 132 128 121 118 121 121 125 123 121 120 116 115 115 115 113 111 113 112 105 105 107 104 102 101 100 102 100 96 93 91 89 89 91 90 89 90 90 93 100 106 105 100 99 96 93 91 90
43 146 38 65 66 25 102 185 211 236 245 171 178 203 191 196 178 152 162 181 78 7 30 98 138 111 76 323 68 125 187 154 151 162 155 154 158 158 156 153 150 146 147 148 152 154 151 151 147 138 132 128 124 125 125 125 129 126 123 119 116 115 112 114 112 112 114 114 110 108 110 110 108 104 102 101 100 100 98 96 96 95 94 94 93 93 92 92 97 107 109 105 104 101 98 93 92
60 141 21 89 59 17 90 205 236 219 233 208 219 186 180 191 163 150 171 166 137 70 64 151 110 88 322 4 100 313 128 163 161 160 158 154 159 158 157 157 152 147 149 151 154 155 155 156 154 147 138 131 128 132 132 132 133 128 123 119 119 118 117 117 113 114 116 116 112 112 116 116 116 110 106 106 106 109 108 105 103 101 99 98 97 95 93 93 98 110 114 112 112 110 105 97 91
50 52 55 87 110 26 37 301 282 235 255 263 235 186 173 170 150 149 155 103 138 141 145 212 92 96 196 40 117 302 72 158 158 154 157 156 160 160 160 161 154 149 151 152 155 158 159 162 161 153 143 135 130 133 136 134 135 133 127 122 124 125 124 122 119 121 121 121 117 119 120 118 124 120 111 107 106 114 117 114 109 106 103 103 100 96 96 95 100 112 120 121 121 120 116 104 94
39 27 118 78 107 31 338 292 290 254 265 266 213 198 171 157 151 156 141 133 133 126 167 219 78 108 141 74 217 320 109 151 149 150 157 159 161 162 163 162 157 152 152 154 156 160 163 167 165 157 149 142 138 136 140 141 138 138 136 130 131 132 129 126 126 126 125 127 123 125 124 119 120 114 111 106 101 106 111 116 116 113 109 107 101 97 98 98 104 116 126 131 132 130 125 112 100
36 1 101 75 72 129 248 251 278 267 285 304 270 234 171 149 135 126 111 119 85 117 177 78 92 122 100 68 262 323 153 152 150 153 159 162 163 165 164 162 162 157 154 155 157 162 166 170 169 163 157 152 149 144 143 147 146 143 140 137 138 137 134 135 135 129 127 130 129 131 132 127 126 120 118 116 107 105 104 106 113 115 108 101 97 99 103 106 119 124 128 139 142 139 131 121 108
87 348 67 86 143 193 207 219 275 287 318 336 202 243 153 134 134 158 143 132 127 129 201 188 137 138 83 16 283 114 157 158 157 157 161 164 164 167 167 163 164 162 158 157 159 164 169 173 173 169 166 161 158 154 150 152 158 158 151 145 143 143 141 145 147 142 138 139 137 141 146 143 141 140 133 123 113 112 109 95 99 107 104 105 103 106 118 121 127 129 132 143 149 150 144 135 120
118 137 88 121 185 160 168 186 281 317 327 264 202 215 132 139 191 183 145 124 152 142 227 200 139 111 92 217 276 132 169 169 160 158 163 164 166 169 168 167 166 166 162 162 163 166 172 175 177 173 171 169 165 163 162 162 165 166 161 157 153 148 144 147 154 155 152 150 149 150 157 157 147 144 141 132 127 127 122 108 105 108 108 112 108 109 118 115 120 129 132 140 148 156 159 159 147
131 151 112 139 168 118 157 153 262 179 256 252 209 158 138 176 215 177 133 126 192 194 196 169 138 109 97 202 195 192 187 175 162 161 164 163 168 169 171 172 170 170 167 167 167 168 172 175 177 175 174 174 172 170 171 172 169 165 164 167 167 162 156 152 154 159 160 159 164 165 161 164 157 149 149 142 138 138 132 124 116 107 105 106 105 108 107 102 110 122 125 131 139 146 154 160 167
129 130 94 114 46 6 187 190 174 165 225 228 173 152 148 245 162 161 148 147 212 237 132 130 152 129 156 174 190 202 186 174 166 165 166 166 169 169 174 175 174 175 173 172 171 171 172 174 175 174 176 176 176 175 174 175 172 170 165 164 169 173 169 161 156 159 165 166 173 176 167 166 166 160 159 156 152 151 144 133 107 90 88 91 99 99 96 95 101 109 117 124 128 136 143 150 163
113 99 68 100 139 268 223 192 112 137 236 223 164 138 138 286 149 162 218 144 149 191 123 155 196 76 166 181 197 184 176 171 169 168 167 166 167 169 174 175 177 179 177 178 175 175 174 174 173 173 177 177 178 179 177 175 174 173 162 152 154 161 167 167 166 166 171 176 179 181 178 171 171 172 170 173 171 170 170 150 105 86 80 85 92 92 94 96 99 103 107 110 114 120 127 137 157
80 78 74 93 171 209 213 179 170 167 228 230 206 155 147 240 250 171 328 85 112 138 21 218 247 33 174 216 183 170 169 168 168 166 163 162 164 165 170 173 176 179 182 184 181 179 177 176 175 173 176 177 180 181 181 177 175 173 163 155 151 152 161 167 172 165 165 175 184 188 186 177 174 180 180 182 182 182 184 167 124 93 86 91 92 95 101 100 101 103 101 99 99 99 104 106 122
55 79 112 174 186 198 192 181 196 175 184 201 201 182 156 166 186 174 67 56 56 87 357 326 343 353 197 213 157 160 163 165 167 164 161 162 164 165 170 174 177 182 185 187 188 185 181 179 176 175 175 176 180 182 182 179 176 174 168 164 158 156 160 163 159 151 148 154 170 182 186 182 175 179 184 188 189 188 183 175 155 109 99 108 109 112 112 107 103 101 100 93 90 88 90 86 81
90 120 138 214 199 210 200 176 191 184 177 183 189 192 176 174 167 150 138 169 181 138 302 337 5 12 127 155 150 155 160 163 166 165 163 164 167 169 173 176 179 184 188 188 191 190 187 183 179 178 176 175 178 178 178 178 177 176 174 172 166 162 160 159 155 149 141 136 145 156 165 169 166 171 182 191 195 194 191 185 172 145 134 141 145 146 133 122 109 98 97 84 79 74 69 67 57
142 133 222 240 210 232 238 190 198 206 165 166 187 191 188 182 155 150 155 169 208 193 202 182 194 193 142 151 149 152 159 163 168 167 167 169 171 173 175 179 182 186 190 190 191 193 192 187 184 182 178 176 175 174 173 174 176 178 177 177 174 169 163 161 163 159 148 140 139 141 144 147 146 155 170 187 193 194 194 186 179 174 173 180 183 175 171 172 150 119 81 52 23 14 17 15 12
178 155 204 236 187 231 249 208 210 210 169 166 172 136 169 193 147 145 141 146 240 235 216 196 189 176 158 159 153 155 161 167 173 171 171 173 175 178 181 185 186 188 191 191 193 195 193 192 190 186 183 181 177 176 175 174 176 178 180 181 180 175 171 171 172 171 164 157 151 147 147 146 142 143 156 182 193 200 198 190 191 189 188 196 201 203 211 224 235 257 289 308 317 327 329 333 333
228 233 214 209 154 229 256 213 210 192 149 142 154 157 172 168 131 161 154 168 226 226 219 210 185 165 162 162 158 160 165 172 177 176 176 177 178 180 183 187 188 190 193 194 195 195 194 193 194 191 189 187 184 183 179 179 181 183 185 184 184 182 179 180 181 181 177 174 170 167 165 165 165 155 149 179 192 201 201 198 198 199 201 205 213 230 243 247 257 265 281 294 302 313 315 316 319
268 278 268 243 190 234 280 258 222 173 142 159 175 178 145 130 169 185 175 193 229 242 212 185 176 171 163 159 160 165 170 178 183 183 182 180 181 181 183 186 189 192 195 197 196 195 194 193 195 196 194 192 189 187 186 188 189 190 193 192 191 187 186 186 188 188 184 184 183 183 182 184 188 182 183 190 192 196 198 199 203 214 214 217 232 248 265 267 273 278 288 295 297 304 306 305 309
258 272 293 289 220 228 286 339 240 179 168 178 158 137 148 162 181 162 200 222 269 299 180 142 150 163 161 160 166 174 175 180 187 189 187 185 186 186 186 188 191 193 195 198 197 195 195 194 196 198 199 197 192 189 192 195 195 197 199 202 200 195 194 192 196 197 193 193 194 194 196 198 204 212 214 199 202 205 208 209 211 225 222 232 258 272 297 297 292 294 305 311 306 306 307 310 313
231 244 275 297 248 259 303 324 185 168 173 143 116 144 176 187 159 145 216 237 292 328 129 127 137 153 168 174 175 178 179 182 187 191 193 192 190 189 190 191 192 194 197 199 198 196 195 196 198 200 202 200 196 195 196 197 198 200 202 205 204 202 202 197 199 205 206 207 205 205 206 207 214 220 224 222 225 226 236 243 238 237 231 252 280 299 317 321 318 315 319 321 320 316 313 315 315
238 246 264 285 288 300 333 338 166 151 158 133 133 152 199 230 134 191 226 224 245 119 129 133 142 158 180 184 182 182 183 186 187 191 195 196 194 191 192 192 194 197 200 201 199 196 195 197 201 203 205 202 201 201 201 202 202 204 205 205 205 207 206 201 199 204 211 218 220 224 223 228 239 238 239 246 249 250 262 272 276 274 267 275 293 307 317 321 323 323 321 322 322 319 315 314 314
293 305 275 263 282 303 360 352 238 142 128 159 150 156 245 305 30 226 235 183 135 127 133 148 153 169 184 188 192 188 189 192 189 189 193 197 196 194 194 194 196 201 202 203 203 200 197 199 204 206 207 206 205 206 206 206 207 209 208 206 208 211 209 207 206 205 210 218 225 232 239 248 257 258 252 253 262 269 279 288 295 293 291 296 302 310 314 315 318 318 317 318 318 316 315 315 315
310 312 294 280 304 299 273 44 258 174 128 157 133 129 294 339 270 231 228 154 144 141 148 166 168 176 186 190 196 195 198 198 191 189 193 198 198 197 197 197 199 202 203 205 206 205 202 203 206 208 209 209 210 211 210 210 212 212 211 210 212 214 213 216 216 215 217 218 223 230 244 254 261 264 257 257 266 272 278 286 294 297 300 304 304 309 312 311 312 312 312 313 314 313 313 316 315
305 289 285 296 332 299 237 178 265 207 170 173 125 96 288 239 225 250 237 141 136 144 160 174 181 183 186 192 197 204 206 200 196 199 201 201 201 200 200 201 202 204 206 209 210 209 208 207 208 211 211 211 213 215 214 213 215 215 215 215 217 217 218 222 223 225 228 226 228 234 243 251 259 263 259 260 266 273 277 277 281 290 298 299 299 303 306 307 307 306 309 310 310 309 310 315 315
300 277 229 280 337 296 244 164 188 187 172 167 141 187 253 235 234 251 203 141 129 145 177 181 187 189 187 195 200 212 211 204 206 208 207 205 204 204 204 205 205 207 208 210 211 212 212 211 211 214 214 214 216 217 218 217 218 219 219 220 220 221 221 225 227 230 235 235 235 238 242 248 254 257 258 261 264 272 276 272 274 279 284 286 289 295 297 300 302 303 305 304 305 307 310 315 315
295 274 220 196 178 269 281 151 141 171 194 102 134 211 256 248 239 232 190 162 149 163 189 189 192 195 192 200 204 215 216 214 217 215 213 210 208 207 207 207 208 210 211 210 212 214 215 214 214 216 217 218 218 219 220 220 222 223 223 224 224 225 225 226 228 231 239 243 243 241 240 243 245 250 253 257 263 270 276 277 276 276 277 280 285 294 297 297 297 297 299 300 306 310 311 313 313
270 239 267 342 162 265 303 279 163 172 270 78 135 211 268 261 249 239 197 174 168 176 189 194 197 199 198 206 208 217 224 224 228 226 222 218 213 211 210 210 210 211 213 214 215 216 217 217 217 218 218 219 220 221 222 223 225 227 227 227 227 230 230 229 230 233 241 249 250 246 244 242 242 246 248 253 262 270 280 284 283 282 278 278 284 295 301 302 301 297 296 298 300 301 305 307 307
282 205 244 226 161 253 306 283 210 170 114 94 176 215 256 268 279 280 194 176 179 183 192 198 202 206 204 208 213 218 227 230 235 233 229 224 219 216 213 213 213 214 216 217 218 218 218 219 218 220 220 220 221 222 223 224 226 228 229 229 228 232 233 232 232 233 240 249 252 250 248 245 244 245 247 254 262 270 279 284 287 287 284 282 287 293 294 295 297 295 293 293 289 289 297 301 301
300 310 235 239 183 200 251 281 270 150 140 208 213 232 245 267 307 315 212 184 180 187 200 204 204 210 207 210 218 219 223 226 231 231 228 225 222 219 217 217 217 217 219 220 220 220 221 220 219 221 222 221 222 222 223 224 226 228 230 231 230 232 234 235 235 235 241 246 246 248 252 254 255 254 251 255 262 272 278 282 285 283 281 283 285 288 289 289 291 291 292 293 290 288 291 293 298
210 211 218 257 237 217 217 239 237 158 171 213 196 233 255 264 293 298 235 198 189 198 204 205 208 214 212 212 218 221 224 228 231 229 227 225 223 221 219 219 219 220 221 221 222 223 223 222 221 222 222 222 222 223 223 223 225 226 229 232 232 232 234 235 236 239 244 245 242 244 250 255 262 260 257 262 269 274 282 293 296 288 284 282 281 284 287 290 292 292 294 294 292 290 289 293 298
212 208 195 197 211 238 226 232 259 175 167 220 202 217 244 249 267 262 217 193 209 222 218 216 219 219 222 220 222 224 223 231 235 232 229 227 224 221 220 219 220 222 223 224 224 225 224 221 221 220 221 223 222 222 221 221 222 223 225 230 231 231 234 236 238 243 245 245 243 244 248 255 266 265 259 265 269 270 277 287 288 282 284 283 276 275 282 289 290 291 292 292 294 294 293 295 298
256 246 211 206 201 230 232 233 291 255 164 225 215 221 248 250 257 252 200 172 222 236 226 225 226 218 221 220 224 225 224 234 238 236 232 228 226 222 220 219 220 222 223 225 225 225 224 221 220 220 221 222 221 220 219 219 220 219 220 226 230 232 234 236 238 242 243 245 245 247 250 256 264 264 261 266 269 268 272 278 277 273 278 287 281 273 279 285 284 286 290 294 298 297 296 297 300
248 250 235 230 210 223 240 218 301 333 183 236 227 230 259 257 255 253 164 179 221 227 217 221 222 219 223 220 225 227 229 240 239 236 231 225 224 222 220 219 218 219 221 222 223 224 222 220 220 221 220 220 221 221 221 221 222 221 221 225 229 232 234 236 238 240 242 244 247 249 251 252 255 257 258 264 267 267 271 275 277 277 280 287 284 276 278 284 286 288 292 298 302 302 301 304 307
230 239 227 232 222 233 284 288 326 4 192 258 251 212 253 260 257 236 191 207 230 223 215 224 218 215 222 218 224 226 229 238 229 231 228 220 220 218 217 217 217 219 220 221 222 222 220 219 220 220 220 220 221 222 223 224 225 225 225 228 229 230 234 238 240 243 244 246 248 250 253 256 258 259 259 264 268 270 275 275 271 271 273 279 280 275 275 283 289 292 294 297 303 308 308 309 314
228 218 204 237 223 183 237 258 313 21 123 236 154 201 266 276 286 269 225 217 240 240 227 237 229 218 223 222 225 222 219 225 226 231 227 219 218 215 213 214 216 218 218 219 220 219 219 218 219 220 220 222 222 223 224 225 226 225 225 228 231 232 236 239 240 244 246 248 250 249 255 261 263 265 262 262 264 263 269 269 264 264 271 279 281 279 280 289 294 296 298 302 312 320 316 313 319
239 215 203 231 211 199 216 186 133 25 354 85 100 16 298 267 266 268 244 201 234 251 238 248 247 232 238 250 244 226 217 219 221 226 223 216 215 213 213 214 215 215 216 218 218 218 219 220 221 221 221 222 223 224 224 223 222 220 219 221 225 228 233 235 235 238 241 245 248 248 254 258 262 266 258 254 254 250 257 264 262 261 268 279 287 294 309 320 321 321 322 328 341 344 331 320 324
256 229 209 212 205 205 189 137 115 101 258 269 106 225 282 282 254 249 251 212 236 242 231 242 247 236 237 247 240 226 224 223 221 228 226 218 217 214 214 213 213 214 216 219 220 221 222 223 223 222 222 223 224 224 223 221 219 218 217 215 216 218 223 229 233 237 240 244 248 248 248 251 259 261 255 262 262 248 257 282 276 262 261 275 304 322 336 334 330 335 340 341 346 353 347 334 333
254 235 206 206 197 179 160 153 141 163 227 276 100 182 253 305 272 244 259 275 255 256 248 247 247 240 232 233 233 225 225 223 222 233 231 220 218 214 213 214 212 215 218 219 220 222 223 224 225 224 225 225 224 224 222 221 220 219 220 220 220 219 221 228 236 243 246 248 250 247 241 242 251 251 251 267 263 224 238 288 322 312 294 290 295 304 312 312 310 314 324 328 325 325 333 339 343
246 240 192 194 182 173 175 168 167 194 220 308 19 152 225 275 259 258 320 293 270 269 257 254 248 239 235 231 230 225 222 215 213 224 225 219 215 211 212 214 214 217 219 219 218 220 222 224 226 226 227 227 226 224 223 222 221 220 221 223 224 225 227 232 237 242 244 247 246 241 237 227 222 223 226 236 233 235 260 272 288 298 294 293 293 292 293 293 293 292 296 301 298 296 305 314 320
245 220 170 184 177 173 179 173 170 146 186 255 271 158 200 260 269 300 357 259 271 266 248 246 241 236 234 232 231 227 225 218 210 216 220 218 215 213 214 215 216 217 218 218 218 220 221 222 224 226 226 227 226 225 224 223 222 223 222 222 223 226 230 233 233 233 234 234 224 212 210 199 194 210 223 231 244 265 274 275 280 283 280 280 278 280 282 282 284 285 286 287 285 286 293 297 299
226 148 104 66 68 93 119 161 141 72 219 227 220 184 203 261 270 292 344 242 254 255 249 242 240 238 231 228 231 228 226 223 217 219 221 222 220 217 215 215 216 216 217 219 219 219 220 221 222 223 225 226 226 225 224 223 222 222 222 222 222 222 223 223 220 216 211 207 196 187 188 189 201 227 230 231 242 257 269 277 282 279 273 267 265 270 274 277 283 283 280 282 281 279 283 285 289
144 112 77 50 35 50 58 71 94 108 241 238 216 192 201 255 264 235 212 217 219 227 250 255 252 249 232 226 229 223 220 219 213 216 220 218 216 213 210 210 212 212 214 216 217 218 219 221 221 223 224 225 225 224 223 222 221 221 221 222 222 220 218 213 205 198 191 188 186 182 184 192 207 217 217 223 241 257 266 269 269 265 258 252 254 261 267 285 302 297 286 289 281 269 276 286 285
149 123 108 80 0 26 42 8 75 193 237 257 248 189 180 232 255 231 230 248 225 213 237 252 259 260 244 234 232 223 219 213 202 202 203 191 185 192 197 201 203 204 207 210 212 215 216 219 221 222 224 224 224 224 222 222 221 220 221 221 221 221 218 211 202 195 190 186 185 183 186 198 208 211 222 240 252 257 255 248 242 240 242 243 246 249 256 332 15 45 63 72 79 85 75 56 48
197 161 144 159 257 90 181 241 193 220 242 278 288 181 193 237 249 253 261 265 245 219 224 243 259 266 256 239 229 223 215 205 198 191 188 181 175 181 186 191 196 198 203 206 208 212 214 217 220 222 223 222 222 222 221 220 220 219 219 219 219 221 218 212 205 198 194 192 192 193 201 215 220 224 234 241 241 238 234 232 231 229 230 226 213 193 161 109 76 72 73 75 76 78 71 63 60
195 185 173 180 174 159 203 220 226 247 252 300 301 217 246 268 265 250 248 253 245 222 230 242 249 259 264 251 226 216 215 206 202 193 186 193 191 189 190 193 196 200 203 206 209 212 215 218 220 221 222 220 219 219 218 218 218 217 218 218 219 219 214 208 204 199 195 193 196 204 216 223 222 224 228 226 224 223 224 221 210 192 174 155 140 131 127 118 106 97 91 83 77 74 66 60 58
203 209 165 175 175 174 203 205 196 219 240 306 298 210 196 200 252 244 238 266 279 238 247 249 245 258 266 254 215 200 213 211 204 203 200 207 203 199 200 201 203 207 209 211 212 213 215 217 219 219 217 215 213 213 213 213 213 213 213 215 215 214 210 203 198 197 196 196 202 213 219 219 220 220 218 215 212 208 201 181 161 146 134 128 124 122 121 116 112 106 100 93 86 81 71 61 54
217 170 141 203 195 153 152 182 179 171 153 283 236 227 215 206 269 280 272 297 290 263 278 259 249 269 253 225 215 198 207 207 204 209 211 219 213 207 208 209 212 214 217 219 217 215 214 213 214 213 211 208 206 206 205 206 207 207 208 209 208 206 202 197 192 191 194 201 212 220 217 214 215 213 206 201 194 183 169 151 142 134 128 125 122 120 117 112 110 107 101 95 88 83 73 63 56
175 161 197 229 171 118 118 198 98 91 173 240 196 239 296 306 284 307 346 314 290 278 285 262 254 276 241 224 220 205 205 202 205 209 208 212 208 208 210 210 212 214 218 222 220 216 212 208 204 201 198 195 195 196 197 197 198 198 198 199 198 195 193 193 193 193 197 206 214 215 210 205 203 200 193 185 174 160 151 144 139 134 129 127 123 121 117 112 110 106 100 94 85 82 74 67 60
137 194 205 196 114 108 110 170 5 50 207 263 285 216 276 246 246 324 350 297 276 263 258 269 274 256 234 232 220 214 216 210 215 216 213 210 200 202 205 205 209 212 216 220 219 212 205 203 199 192 188 185 184 187 189 190 191 189 188 188 188 188 190 192 195 198 203 208 208 201 198 193 188 185 179 170 160 152 146 143 140 135 130 129 126 122 119 114 111 106 100 94 88 84 74 61 47
181 220 201 140 175 209 140 162 189 175 220 283 317 257 254 199 214 294 271 234 249 250 238 254 257 234 226 231 220 222 224 216 218 213 212 208 197 199 198 199 205 208 212 215 213 204 195 194 194 189 185 181 180 182 183 183 185 185 183 183 185 187 189 191 195 200 205 203 196 188 185 183 177 173 167 159 154 149 146 143 140 136 132 131 129 126 122 116 112 106 99 94 87 81 70 55 37
196 227 226 161 175 190 187 170 165 179 212 254 300 298 265 227 217 219 230 234 234 231 219 228 235 228 222 219 212 214 212 209 208 202 204 201 197 198 195 197 201 203 207 207 204 198 190 187 187 185 183 180 179 181 180 180 181 182 182 182 185 187 190 194 198 200 196 189 183 179 178 175 168 163 158 155 152 149 147 144 141 139 137 135 132 128 123 119 115 107 98 89 76 67 53 42 29
174 182 197 204 139 144 183 171 118 139 177 194 213 280 262 248 215 199 227 242 227 211 216 227 234 230 223 217 210 210 205 207 205 194 198 199 197 194 189 193 196 197 199 198 197 196 190 187 185 184 183 179 178 179 179 179 179 181 183 183 185 189 193 196 195 189 184 180 177 175 172 168 161 157 156 154 152 149 148 147 145 143 140 135 131 127 123 118 114 100 89 77 60 47 32 24 18
170 198 202 190 152 115 170 236 219 109 151 170 166 247 267 257 212 206 226 240 216 204 218 234 241 232 224 219 211 208 203 204 201 193 193 192 189 185 180 183 186 187 190 190 193 193 191 190 187 186 186 182 180 180 180 182 182 183 187 188 191 193 193 191 184 180 179 176 174 171 167 163 158 155 155 155 153 151 150 150 148 144 139 134 130 126 121 117 110 93 76 60 40 27 17 11 9